FW6611 Weather Reports


Display with metric or nautical units.
time (UTC)temp
F
wind
direction
speed
MPH
gust
MPH
rain 1hr
in
rain 24hr
in
rain mn
in
humidity
%
barometer
mb
20210925030638 54 26 0.0 0.0 0.00 0.00 0.00 93 1019.3
20210925025637 54 26 0.0 0.0 0.00 0.00 0.00 93 1019.3
20210925024635 55 26 0.0 0.0 0.00 0.00 0.00 92 1019.2
20210925023633 55 26 0.0 0.0 0.00 0.00 0.00 92 1019.2
20210925022635 55 26 0.0 0.0 0.00 0.00 0.00 92 1019.2
20210925021634 55 26 0.0 0.0 0.00 0.00 0.00 92 1019.2
20210925020633 55 26 0.0 0.0 0.00 0.00 0.00 92 1019.3
20210925015627 56 26 0.0 0.0 0.00 0.00 0.00 92 1019.2
20210925014626 56 26 0.0 0.0 0.00 0.00 0.00 91 1019.2
20210925013624 56 26 0.0 0.0 0.00 0.00 0.00 90 1019.2
20210925012623 56 26 0.0 0.0 0.00 0.00 0.00 91 1019.3
20210925011625 57 26 0.0 0.0 0.00 0.00 0.00 91 1019.2
20210925010621 57 26 0.0 0.0 0.00 0.00 0.00 90 1019.2
20210925005618 58 26 0.0 0.0 0.00 0.00 0.00 89 1019.2
20210925004617 58 26 0.0 0.0 0.00 0.00 0.00 88 1019.2
20210925003613 59 26 0.0 0.0 0.00 0.00 0.00 87 1018.9
20210925002614 59 26 0.0 0.0 0.00 0.00 0.00 85 1018.8
20210925001614 60 26 0.0 0.0 0.00 0.00 0.00 84 1018.7
20210925000611 61 26 0.0 0.0 0.00 0.00 0.00 81 1018.6
20210924235611 61 26 0.0 0.0 0.00 0.00 0.00 81 1018.7
20210924234609 62 26 0.0 0.0 0.00 0.00 0.00 81 1018.5
20210924233611 63 26 1.0 3.0 0.00 0.00 0.00 75 1018.5
20210924232607 64 26 1.0 3.0 0.00 0.00 0.00 73 1018.6
20210924231605 65 26 1.0 5.0 0.00 0.00 0.00 69 1018.6
20210924230605 67 26 2.0 5.0 0.00 0.00 0.00 67 1018.8
20210924225605 67 20 2.0 4.0 0.00 0.00 0.00 64 1018.9
20210924224605 68 24 2.0 5.0 0.00 0.00 0.00 64 1018.7
20210924223605 70 30 3.0 5.0 0.00 0.00 0.00 59 1018.8
20210924222604 70 25 3.0 5.0 0.00 0.00 0.00 57 1018.7
20210924221601 71 26 2.0 5.0 0.00 0.00 0.00 57 1018.6
20210924220600 71 355 2.0 6.0 0.00 0.00 0.00 56 1018.5
20210924215557 72 14 2.0 5.0 0.00 0.00 0.00 53 1018.6
20210924214558 72 320 2.0 6.0 0.00 0.00 0.00 50 1018.4
20210924213559 73 348 2.0 5.0 0.00 0.00 0.00 50 1018.3
20210924212559 73 296 3.0 8.0 0.00 0.00 0.00 50 1018.2
20210924211556 74 15 3.0 7.0 0.00 0.00 0.00 48 1018.2
20210924210554 74 69 3.0 9.0 0.00 0.00 0.00 47 1018.2
20210924205548 74 32 3.0 9.0 0.00 0.00 0.00 47 1018.3
20210924204547 74 50 3.0 10.0 0.00 0.00 0.00 47 1018.3
20210924203548 74 333 4.0 10.0 0.00 0.00 0.00 49 1018.2
20210924202544 75 321 3.0 9.0 0.00 0.00 0.00 47 1018.1
20210924201545 75 56 3.0 9.0 0.00 0.00 0.00 47 1018.2
20210924200546 75 291 2.0 8.0 0.00 0.00 0.00 48 1018.1
20210924195544 75 347 3.0 9.0 0.00 0.00 0.00 48 1018.2
20210924194544 75 44 4.0 10.0 0.00 0.00 0.00 47 1018.3
20210924193540 75 5 3.0 9.0 0.00 0.00 0.00 47 1018.3
20210924192540 75 13 3.0 9.0 0.00 0.00 0.00 47 1018.3
20210924191539 75 340 2.0 9.0 0.00 0.00 0.00 48 1018.4
20210924190539 74 17 4.0 9.0 0.00 0.00 0.00 47 1018.5
20210924185540 75 347 3.0 9.0 0.00 0.00 0.00 50 1018.5
20210924184539 75 213 4.0 9.0 0.00 0.00 0.00 51 1018.5
20210924183538 74 341 3.0 9.0 0.00 0.00 0.00 49 1018.8
20210924182538 74 272 3.0 7.0 0.00 0.00 0.00 51 1018.9
20210924181539 74 281 5.0 11.0 0.00 0.00 0.00 49 1019.0
20210924180537 74 275 3.0 9.0 0.00 0.00 0.00 52 1019.1
20210924175536 74 73 4.0 9.0 0.00 0.00 0.00 49 1019.1
20210924174538 74 331 6.0 13.0 0.00 0.00 0.00 53 1019.2
20210924173537 74 355 3.0 13.0 0.00 0.00 0.00 52 1019.3
20210924172534 73 100 3.0 13.0 0.00 0.00 0.00 53 1019.7
20210924171535 73 32 5.0 13.0 0.00 0.00 0.00 53 1019.8
20210924170535 73 51 3.0 11.0 0.00 0.00 0.00 53 1019.9
20210924165536 72 269 4.0 11.0 0.00 0.00 0.00 51 1020.1
20210924164534 72 268 4.0 11.0 0.00 0.00 0.00 53 1020.2
20210924163535 73 323 3.0 9.0 0.00 0.00 0.00 53 1020.2
20210924162532 72 355 3.0 11.0 0.00 0.00 0.00 54 1020.3
20210924161534 71 342 5.0 11.0 0.00 0.00 0.00 54 1020.4
20210924160527 71 348 5.0 12.0 0.00 0.00 0.00 53 1020.4
20210924155524 71 32 6.0 12.0 0.00 0.00 0.00 52 1020.5
20210924154525 71 344 4.0 11.0 0.00 0.00 0.00 53 1020.6
20210924153524 69 28 6.0 13.0 0.00 0.00 0.00 53 1020.7
20210924152524 70 10 5.0 16.0 0.00 0.00 0.00 56 1020.8
20210924151527 69 5 7.0 14.0 0.00 0.00 0.00 56 1020.8
20210924150526 69 286 6.0 13.0 0.00 0.00 0.00 58 1020.8
20210924145520 69 27 5.0 13.0 0.00 0.00 0.00 57 1020.8
20210924144520 68 54 6.0 13.0 0.00 0.00 0.00 59 1020.6
20210924143519 68 16 5.0 12.0 0.00 0.00 0.00 61 1020.6
20210924142522 67 22 5.0 14.0 0.00 0.00 0.00 62 1020.5
20210924141521 66 11 6.0 14.0 0.00 0.00 0.00 63 1020.6
20210924140520 66 44 5.0 11.0 0.00 0.00 0.00 62 1020.4
20210924135521 65 33 5.0 10.0 0.00 0.00 0.00 65 1020.4
20210924134515 63 53 5.0 12.0 0.00 0.00 0.00 66 1020.3
20210924133514 63 28 5.0 12.0 0.00 0.00 0.00 68 1020.2
20210924132515 62 19 4.0 8.0 0.00 0.00 0.00 70 1020.0
20210924131514 61 15 3.0 8.0 0.00 0.00 0.00 72 1020.0
20210924130512 60 24 4.0 8.0 0.00 0.00 0.00 75 1019.9
20210924125513 60 19 4.0 8.0 0.00 0.00 0.00 76 1020.0
20210924124513 59 345 4.0 10.0 0.00 0.00 0.00 75 1019.9
20210924123511 58 22 3.0 8.0 0.00 0.00 0.00 77 1019.8
20210924122512 58 36 3.0 8.0 0.00 0.00 0.00 78 1019.8
20210924121512 57 18 3.0 8.0 0.00 0.00 0.00 79 1019.8
20210924120511 56 351 4.0 8.0 0.00 0.00 0.00 79 1019.6
20210924115513 56 333 4.0 9.0 0.00 0.00 0.00 81 1019.6
20210924114511 55 350 4.0 8.0 0.00 0.00 0.00 82 1019.4
20210924113508 54 329 4.0 8.0 0.00 0.00 0.00 82 1019.4
20210924112506 53 19 3.0 8.0 0.00 0.00 0.00 84 1019.2
20210924111508 53 350 3.0 6.0 0.00 0.00 0.00 84 1019.2
20210924110507 53 355 3.0 8.0 0.00 0.00 0.00 85 1018.9
20210924105505 52 355 4.0 9.0 0.00 0.00 0.00 86 1018.8
20210924104505 52 333 3.0 9.0 0.00 0.00 0.00 88 1018.8
20210924103506 52 342 3.0 5.0 0.00 0.00 0.00 89 1018.7
20210924102503 52 0 3.0 6.0 0.00 0.00 0.00 90 1018.4
20210924101504 52 5 2.0 6.0 0.00 0.00 0.00 90 1018.5
20210924100505 51 355 3.0 6.0 0.00 0.00 0.00 91 1018.3
20210924095504 51 348 2.0 4.0 0.00 0.00 0.00 90 1018.3
20210924094501 52 10 2.0 3.0 0.00 0.00 0.00 89 1018.2
20210924093502 52 10 2.0 4.0 0.00 0.00 0.00 88 1018.1
20210924083459 52 355 4.0 10.0 0.00 0.00 0.00 87 1017.8
20210924082459 51 5 2.0 4.0 0.00 0.00 0.00 88 1017.4
20210924081500 52 16 1.0 3.0 0.00 0.00 0.00 87 1017.4
20210924080501 52 16 2.0 3.0 0.00 0.00 0.00 86 1017.1
20210924075457 53 18 2.0 4.0 0.00 0.00 0.00 85 1017.0
20210924074456 53 355 2.0 4.0 0.00 0.00 0.00 86 1016.9
20210924073456 53 14 2.0 4.0 0.00 0.00 0.00 88 1016.8
20210924072455 52 13 2.0 4.0 0.00 0.01 0.00 89 1016.9
20210924071455 51 5 2.0 5.0 0.00 0.01 0.00 91 1017.0
20210924070456 51 22 2.0 5.0 0.00 0.01 0.00 93 1017.0
20210924065455 51 21 1.0 3.0 0.00 0.01 0.00 94 1016.8
20210924064455 51 21 2.0 3.0 0.00 0.01 0.00 95 1016.9
20210924063454 51 22 1.0 3.0 0.00 0.01 0.00 95 1016.8
20210924062450 51 22 1.0 3.0 0.00 0.01 0.00 95 1016.7
20210924061447 51 22 0.0 3.0 0.00 0.01 0.00 95 1016.6
20210924060446 51 22 0.0 2.0 0.00 0.01 0.00 95 1016.8
20210924055445 52 22 0.0 0.0 0.00 0.01 0.00 95 1016.7
20210924054445 52 22 0.0 0.0 0.00 0.07 0.00 95 1016.7
20210924053446 52 22 0.0 0.0 0.00 0.28 0.00 94 1016.7
20210924052443 52 22 0.0 0.0 0.00 0.40 0.00 94 1016.8
20210924051441 52 22 0.0 0.0 0.00 0.56 0.00 94 1016.9
20210924050442 53 22 0.0 0.0 0.00 0.65 0.00 94 1016.9
20210924045442 53 22 0.0 0.0 0.00 0.68 0.00 93 1016.9
20210924044441 53 22 0.0 1.0 0.00 0.68 0.00 93 1016.9
20210924043442 53 22 0.0 2.0 0.00 0.68 0.00 93 1017.1
20210924042442 54 22 0.0 2.0 0.00 0.68 0.00 93 1017.1
20210924041441 54 22 0.0 1.0 0.00 0.68 0.00 92 1017.1
20210924040440 54 22 0.0 2.0 0.00 0.68 0.00 91 1017.0
20210924035440 55 22 1.0 2.0 0.00 0.70 0.68 90 1016.9
20210924034440 55 22 1.0 2.0 0.00 0.72 0.68 88 1016.8
20210924033440 56 22 1.0 3.0 0.00 0.76 0.68 87 1016.7
20210924032440 56 22 1.0 3.0 0.00 0.76 0.68 86 1016.7
20210924031440 56 22 1.0 3.0 0.00 0.76 0.68 86 1016.7